Theta_e
326 325 325 324 322 320 321 322 323 323 323 322 322 322 321 321 321 321 322 316 321 323 321 320 319 318 317 316 315 315 315 314 313 312 311 312 312 313 312 311 310 309 310
324 324 323 322 320 319 319 319 320 320 320 320 319 319 319 318 317 318 319 319 320 323 322 320 320 319 318 317 316 315 315 314 313 312 311 310 310 312 311 310 308 308 308
324 323 322 321 320 318 318 316 315 315 316 316 317 317 316 316 316 315 316 316 317 319 323 322 322 321 320 319 317 317 316 315 315 314 313 311 309 308 310 310 307 308 307
325 323 321 320 320 318 317 315 314 313 313 314 314 314 314 313 313 312 313 314 315 314 317 323 323 322 321 321 320 318 317 316 315 315 314 312 311 310 310 312 309 307 306
323 323 322 320 320 319 317 315 312 312 311 311 311 310 310 310 310 310 311 311 312 313 314 313 317 319 321 321 320 320 319 317 316 315 314 314 312 310 312 313 311 308 305
323 323 322 320 320 319 316 315 313 311 311 311 308 307 307 307 306 307 308 308 310 310 310 311 313 313 314 320 321 320 320 318 317 315 314 314 313 311 311 313 312 310 306
323 323 322 320 320 319 318 316 314 309 306 306 305 304 305 305 305 305 305 305 306 307 309 309 309 310 310 315 319 321 320 320 319 317 315 314 313 312 312 313 313 311 306
323 322 322 321 320 319 318 317 313 308 307 305 304 301 303 305 302 303 304 303 303 304 304 306 307 307 308 308 309 316 320 320 320 319 317 315 314 313 313 312 313 311 308
322 323 322 321 320 320 318 318 314 310 307 304 304 306 300 299 298 299 300 301 301 300 302 302 303 304 305 306 307 310 313 318 318 319 319 316 315 315 313 313 312 310 309
322 322 322 321 321 321 320 318 316 314 313 306 304 303 303 301 300 300 299 298 298 298 300 301 300 300 302 304 305 304 305 310 316 319 319 318 316 315 315 314 313 311 309
321 322 322 322 320 320 320 320 317 314 313 312 308 303 305 300 299 299 301 302 297 297 299 300 300 300 300 302 303 303 304 307 309 312 315 317 317 315 315 315 314 312 311
321 321 322 322 322 321 320 319 318 314 314 313 310 308 306 303 302 300 299 302 304 305 301 300 300 299 299 300 299 299 303 305 308 310 311 313 316 316 314 315 314 313 312
319 320 320 321 321 321 321 320 318 316 315 312 312 310 310 310 310 305 305 305 303 304 300 300 301 301 299 299 299 296 298 303 306 308 309 311 313 315 315 314 314 313 312
321 322 321 321 321 321 321 320 319 317 316 313 312 311 311 310 311 309 307 304 303 304 300 305 301 301 300 300 299 295 298 298 302 306 308 309 311 313 313 314 314 313 311
321 321 321 320 320 320 320 320 319 317 317 315 314 312 312 312 310 310 310 310 307 304 306 311 305 301 301 300 299 298 297 296 299 302 305 307 309 311 312 312 312 313 311
321 320 320 320 320 320 320 320 319 319 318 317 316 314 312 312 312 310 310 310 309 307 304 310 312 311 298 297 298 297 297 294 296 299 301 303 306 308 310 310 310 311 310
321 321 321 320 320 320 320 319 318 319 318 317 316 315 314 314 312 312 311 308 308 308 304 307 311 313 306 298 298 296 295 295 296 295 298 301 303 305 307 308 308 309 309
309 308 309 306 304 304 306 309 314 315 315 313 311 312 312 313 313 313 312 310 308 309 307 306 310 309 308 306 301 296 295 295 293 295 297 298 300 302 304 306 306 306 305
303 302 300 298 298 297 298 300 303 303 303 302 302 302 301 300 299 298 300 300 304 307 309 307 306 309 309 296 294 292 294 292 292 293 296 297 298 300 303 304 304 303 302
297 296 295 294 293 292 293 294 297 297 297 297 297 296 295 294 293 293 295 295 296 296 298 299 301 302 302 289 290 290 290 289 291 289 292 294 296 297 301 303 302 300 299
293 292 291 291 291 291 291 291 292 293 292 292 292 292 292 289 289 291 292 292 292 292 292 292 292 294 294 288 287 288 289 288 286 288 289 290 292 294 297 300 298 297 298
289 289 288 289 289 290 291 290 290 290 290 289 289 290 290 289 290 290 290 291 291 289 290 289 289 288 289 291 287 289 289 285 286 286 287 288 291 292 295 298 298 297 298
285 285 286 286 287 288 290 290 289 289 289 289 288 288 288 288 288 289 290 290 289 290 291 290 287 287 287 289 289 288 288 287 289 286 287 286 288 290 293 293 297 297 297
283 283 283 284 285 286 288 288 288 288 288 288 287 287 286 286 288 288 288 287 288 288 289 289 289 289 289 290 289 289 289 288 284 284 286 284 284 284 286 289 296 297 296
282 281 281 282 282 284 287 287 286 285 285 286 286 286 286 286 288 288 286 285 286 286 289 290 290 289 289 289 289 288 286 285 285 281 284 281 282 279 282 285 291 296 295
281 281 281 281 282 283 286 286 285 284 283 284 285 285 285 286 287 287 285 284 283 285 285 285 285 285 286 286 286 286 287 286 282 281 282 279 278 280 279 280 286 291 292
Wind_Speed
6 5 6 5 4 4 5 5 6 5 6 5 4 5 5 5 3 2 3 5 10 6 8 7 5 5 4 4 3 3 3 4 5 4 3 3 3 5 6 7 7 7 10
6 6 7 6 5 4 5 5 5 5 4 4 5 5 4 3 2 2 2 2 4 7 7 7 7 7 6 6 5 6 5 5 5 4 4 2 2 2 3 4 4 7 7
8 8 7 6 6 6 6 5 5 4 3 3 4 4 3 4 3 4 3 2 3 6 8 10 11 10 9 8 8 8 7 6 6 6 7 5 4 3 3 4 3 5 7
11 8 7 7 7 6 5 5 5 4 3 3 3 3 3 3 4 4 4 4 4 3 5 10 10 12 13 11 11 10 9 9 8 8 8 7 6 3 6 7 5 4 5
11 9 7 7 8 7 6 6 3 4 4 3 3 3 3 4 5 4 7 6 6 6 5 7 9 8 9 14 13 12 12 11 10 10 10 10 9 7 5 10 8 6 4
10 8 7 7 8 7 7 6 6 5 3 4 3 3 3 5 5 6 8 6 7 8 7 7 6 5 7 11 16 15 14 14 13 13 13 13 12 11 8 9 11 9 6
10 10 7 8 8 8 9 11 7 6 3 3 2 2 4 9 9 8 8 7 8 8 8 7 5 5 5 11 14 18 18 17 16 15 15 15 16 15 15 12 12 10 7
12 11 10 9 10 8 9 9 7 3 2 5 3 1 3 3 4 8 7 8 10 7 8 9 9 8 7 6 8 15 20 21 19 18 18 18 18 16 17 17 16 13 10
11 13 13 10 11 10 9 11 10 10 6 5 6 3 2 5 3 1 4 7 9 7 8 8 9 9 9 9 10 13 19 20 23 22 21 20 20 20 19 18 17 14 13
12 12 12 11 11 10 11 11 11 9 7 7 3 5 3 3 3 4 2 2 5 8 11 8 9 10 11 9 14 15 15 19 20 21 20 22 22 22 21 20 18 16 15
12 12 11 11 10 9 11 12 12 13 9 6 6 4 8 4 2 4 8 3 3 7 8 9 10 10 12 12 11 15 21 23 21 20 20 20 24 25 23 22 21 20 19
9 13 14 12 11 11 11 11 12 13 11 11 7 8 7 6 7 8 9 10 8 5 7 8 9 10 10 11 15 21 23 26 26 25 24 24 22 24 26 25 24 22 21
6 10 12 12 11 11 11 10 10 11 12 12 12 10 9 10 6 5 7 9 7 3 5 8 9 10 9 10 13 19 23 27 28 28 27 27 25 25 26 27 27 25 23
9 9 11 11 12 11 11 10 8 9 11 11 14 12 10 10 9 9 9 7 8 8 4 10 7 9 10 11 16 19 16 24 28 29 29 30 28 28 28 27 26 24 23
7 8 10 12 12 12 11 12 10 11 9 10 13 13 12 11 9 9 9 10 11 10 11 10 5 9 9 9 12 13 14 18 25 29 30 31 31 31 31 29 24 22 24
9 9 10 11 10 11 12 11 10 9 11 11 9 10 11 10 10 9 11 10 10 12 12 7 9 8 6 7 10 12 14 16 22 25 29 29 28 28 25 25 26 24 27
8 8 9 8 9 10 9 8 10 11 10 11 10 12 15 14 10 10 9 9 10 10 12 12 11 13 9 8 8 10 9 10 11 21 24 25 26 26 26 28 30 27 27
9 9 9 10 10 11 10 8 3 4 4 4 4 3 6 6 10 10 7 11 11 12 11 18 12 9 11 10 9 9 9 9 10 14 21 23 26 27 29 30 30 30 27
10 12 12 11 11 11 9 8 8 8 7 9 9 8 9 9 8 6 6 6 7 6 8 11 13 10 8 1 4 3 4 8 7 13 19 22 25 28 31 32 31 30 27
13 12 12 12 12 11 11 9 9 9 9 9 10 9 10 9 9 8 6 6 7 7 6 8 8 8 5 2 2 3 6 5 7 5 12 13 17 25 29 31 31 29 28
12 12 12 13 12 13 10 9 9 9 9 9 10 10 10 8 8 8 6 8 9 6 6 6 6 7 6 3 3 2 5 3 3 5 6 8 9 11 15 25 22 28 29
13 12 12 12 12 10 17 17 10 9 10 11 8 8 7 6 9 12 12 11 8 8 6 5 5 8 9 8 2 5 6 3 4 5 5 7 8 10 11 12 24 28 29
12 13 11 11 13 12 20 16 14 9 8 9 8 8 7 7 8 9 10 10 7 8 7 8 8 7 9 8 9 10 7 7 8 2 6 4 5 9 7 9 24 28 29
12 10 10 10 12 12 21 19 16 9 7 8 9 10 9 9 12 11 10 11 12 10 7 6 8 10 10 11 10 10 12 9 1 2 3 4 1 1 1 3 20 28 29
10 10 9 11 11 11 21 20 11 8 7 8 7 9 9 8 14 17 8 10 11 10 10 12 14 16 17 18 15 9 8 5 4 2 2 2 1 2 3 3 9 26 28
9 6 9 10 13 10 21 21 13 6 8 6 6 7 14 15 18 19 8 8 10 11 12 13 10 11 12 12 17 9 8 8 2 2 3 3 2 2 1 2 3 11 13
Wind_Direction
171 139 145 150 144 139 143 140 142 150 156 161 176 183 180 177 199 198 181 191 158 207 198 184 196 186 193 185 202 198 163 157 164 154 134 102 61 116 94 84 67 50 48
170 161 159 161 157 160 146 149 155 156 163 175 191 199 199 188 185 240 231 245 216 191 215 233 209 221 209 214 221 223 207 198 206 205 185 154 138 97 118 108 83 66 61
176 174 172 170 170 163 150 145 144 144 156 172 199 199 201 209 218 228 244 263 289 248 227 243 222 224 221 221 225 228 232 219 213 215 207 196 214 223 171 161 128 103 58
186 185 177 180 170 165 163 163 160 155 167 191 195 212 215 218 227 230 235 241 240 257 271 246 256 245 225 229 226 234 231 234 221 222 218 214 208 230 232 191 170 150 120
193 189 186 180 171 174 177 170 166 169 183 193 207 214 242 244 238 238 240 240 240 240 244 260 267 237 259 231 234 227 237 237 234 230 223 224 223 215 249 198 187 157 153
190 190 189 179 178 180 181 182 178 184 185 191 187 224 246 255 248 240 241 237 237 235 237 243 252 250 247 245 240 238 234 234 234 236 238 230 226 229 217 218 200 182 166
189 188 193 188 187 190 193 189 182 183 187 166 107 265 255 244 242 238 235 238 240 238 241 244 245 250 255 254 247 247 247 238 234 229 234 237 233 227 220 212 206 198 178
191 190 193 195 192 191 196 191 186 160 157 182 134 110 294 287 251 242 238 236 239 235 240 238 241 243 245 248 251 254 253 251 244 231 226 232 234 231 229 225 222 230 218
201 200 201 196 192 192 195 194 194 183 184 191 188 159 199 245 311 209 237 241 242 240 248 244 240 239 239 241 245 248 250 253 250 246 230 225 231 223 229 228 225 223 230
204 206 207 206 204 197 200 198 197 206 187 187 207 243 222 155 223 301 225 239 232 237 239 239 240 234 232 235 237 236 234 240 245 250 252 232 229 231 226 225 220 213 215
197 199 213 214 210 212 215 204 196 202 208 196 194 158 221 216 216 242 284 259 239 225 228 228 232 232 230 232 236 237 231 235 237 239 238 242 229 228 228 226 221 211 212
204 207 203 209 213 213 217 214 212 206 206 215 203 200 187 181 201 205 233 256 250 240 222 225 225 227 223 225 232 234 229 228 230 232 232 232 230 226 227 226 222 215 210
199 202 205 204 215 217 219 217 217 222 215 213 209 215 220 228 214 206 228 258 248 243 237 232 227 227 219 217 229 225 231 230 229 228 229 230 227 222 221 226 224 216 205
213 201 210 218 217 213 213 214 216 217 220 223 227 224 227 226 222 217 226 220 261 246 226 252 211 222 220 219 226 217 232 230 233 232 227 228 226 223 218 218 224 221 197
197 190 199 211 216 215 216 217 218 218 217 218 227 225 224 229 224 229 230 232 243 263 259 258 255 207 222 221 229 220 226 232 228 233 233 227 224 223 219 214 212 219 199
188 197 199 211 215 219 226 225 225 220 220 230 229 228 228 231 228 223 228 231 237 251 265 263 261 256 200 216 229 220 229 232 233 232 233 234 234 230 224 214 209 209 200
199 199 204 208 215 223 223 223 220 231 239 238 221 223 233 230 230 234 225 227 234 236 253 261 255 258 242 224 228 218 225 227 241 236 236 231 234 228 218 209 205 202 195
64 67 56 64 65 55 39 30 0 350 314 326 15 347 318 300 257 252 243 240 233 235 246 260 264 258 247 235 233 213 220 225 225 230 228 228 230 226 217 208 203 200 192
73 66 66 61 52 51 42 37 36 53 58 65 38 23 20 9 357 359 349 4 342 318 274 266 276 274 268 162 238 250 222 228 223 225 226 226 223 225 225 209 201 198 186
64 68 66 63 54 44 39 29 45 45 49 40 44 43 37 28 10 1 359 356 340 327 316 310 311 305 293 8 274 251 262 220 241 210 224 219 220 223 225 215 201 191 179
58 60 64 62 55 48 33 28 47 48 50 48 41 34 35 19 2 10 3 352 338 329 315 318 314 312 312 335 262 296 266 289 255 194 221 217 216 217 224 218 199 184 178
63 58 56 57 54 47 35 43 55 61 52 43 30 30 23 9 6 3 3 351 334 330 327 324 315 313 309 310 293 279 275 266 280 212 216 232 206 215 215 205 187 179 180
68 61 54 50 52 42 33 38 35 45 51 42 28 23 23 14 2 350 339 332 335 333 303 302 306 306 305 304 301 296 274 253 261 240 206 253 199 219 208 199 183 176 180
61 60 51 47 49 42 35 39 36 43 41 39 34 30 27 9 6 0 354 353 352 348 327 310 294 295 288 295 286 280 276 274 274 257 206 233 214 121 52 165 185 181 180
55 56 49 46 43 36 37 41 39 43 39 41 34 29 20 14 12 15 13 0 353 352 332 332 326 323 317 315 314 300 276 246 252 259 168 124 42 65 23 169 190 182 178
49 53 59 50 43 35 35 37 39 27 36 37 32 28 21 22 22 22 20 4 357 345 338 337 338 338 339 333 338 331 291 255 221 248 187 119 116 115 65 347 209 177 178